Location: Peebles
(55.6412°N, 3.1714°W)
Time: 21:50:11
(UTC+01:00)

deb AGENA D - Pass Details

Date: 03 July 2022
Orbit: 951 x 1019 km, 99.8° (Epoch: 17 August)

Event Time Altitude Azimuth Distance (km) Brightness Sun altitude
Exits shadow 01:10:35 - 139° (SE) 3,174 ? -11.4°
Reaches altitude 10° 01:11:34 10° 138° (SE) 2,804 ? -11.4°
Maximum altitude 01:17:43 56° 62° (ENE) 1,205 ? -11.4°
Drops below altitude 10° 01:23:53 10° 347° (NNW) 2,812 ? -11.4°
Sets 01:26:24 0° 343° (NNW) 3,761 ? -11.4°
